Location: Unspecified
(25.6830°N, 0.0000°E)
Time: 16:13:05
(UTC+00:00)

LightSail 2 - Visible Passes

Search period start: 18 November 2019 00:00
Search period end: 28 November 2019 00:00
Orbit: 700 x 727 km, 24.0° (Epoch: 17 November)

Date Brightness Start Highest point End Pass type
(mag) Time Alt. Az. Time Alt. Az. Time Alt. Az.
18 Nov 6.7 03:48:57 33° ESE 03:48:57 33° ESE 03:51:50 10° ESE visible
18 Nov 6.2 05:27:56 13° W 05:32:03 36° SSW 05:36:49 10° SE visible
19 Nov 5.7 04:33:40 43° SSW 04:34:12 45° SSW 04:39:09 10° ESE visible
20 Nov 7.2 03:39:23 23° ESE 03:39:23 23° ESE 03:41:22 10° ESE visible
20 Nov 6.7 05:18:22 14° WSW 05:21:35 24° SSW 05:25:45 10° SSE visible
21 Nov 6.3 04:24:06 31° S 04:24:06 31° S 04:28:18 10° SE visible
22 Nov 7.8 03:29:51 14° SE 03:29:51 14° SE 03:30:41 10° SE visible
22 Nov 7.2 05:08:50 12° SW 05:11:03 15° SSW 05:14:00 10° S visible
23 Nov 7.1 04:14:34 19° S 04:14:34 19° S 04:17:01 10° SSE visible
24 Nov 7.2 19:12:49 10° SSW 19:14:57 16° S 19:14:57 16° S visible
25 Nov 7.3 18:16:05 10° S 18:18:23 13° SSE 18:20:40 10° SE visible
25 Nov 7.8 19:58:52 10° SW 19:59:38 14° SW 19:59:38 14° SW visible
26 Nov 6.4 19:01:18 10° SW 19:05:20 28° SSE 19:05:20 28° SSE visible
27 Nov 6.8 18:03:55 10° SSW 18:07:46 21° SSE 18:11:00 12° ESE visible
27 Nov 7.2 19:48:03 10° WSW 19:50:00 22° SW 19:50:00 22° SW visible
